IPG1010 -KSAN

Flight info

Callsign IPG1010
Flight time N/A
Altitude VFR
Route
Aircraft C172/L-SFG/C

Departure

Time N/A
Airport -

Arrival

Time 2026-05-05 07:21
Airport San Diego International Airport (KSAN)
Time Latitude Longitude Altitude Speed Heading
2026-05-05 07:09 32.74300 -117.21997 763 ft 99 kts 311°
2026-05-05 07:10 32.74905 -117.22431 968 ft 107 kts 333°
2026-05-05 07:10 32.75683 -117.22594 1080 ft 122 kts 354°
2026-05-05 07:10 32.76527 -117.22440 1227 ft 123 kts 18°
2026-05-05 07:10 32.77287 -117.21977 1354 ft 125 kts 26°
2026-05-05 07:11 32.78043 -117.21437 1447 ft 127 kts 27°
2026-05-05 07:11 32.78840 -117.20940 1488 ft 131 kts 20°
2026-05-05 07:11 32.79727 -117.20824 1557 ft 126 kts 353°
2026-05-05 07:11 32.80582 -117.20856 1669 ft 122 kts 351°
2026-05-05 07:12 32.81430 -117.20928 1738 ft 121 kts 349°
2026-05-05 07:12 32.82260 -117.21035 1802 ft 119 kts 347°
2026-05-05 07:12 32.82529 -117.21082 1843 ft 118 kts 346°
2026-05-05 07:13 32.83048 -117.21176 1895 ft 117 kts 347°
2026-05-05 07:13 32.83876 -117.21060 1914 ft 127 kts 18°
2026-05-05 07:13 32.84518 -117.20373 2013 ft 127 kts 66°
2026-05-05 07:13 32.84709 -117.19345 2046 ft 129 kts 85°
2026-05-05 07:14 32.84834 -117.18330 2192 ft 121 kts 85°
2026-05-05 07:14 32.84923 -117.17314 2224 ft 126 kts 91°
2026-05-05 07:14 32.84907 -117.16280 2248 ft 127 kts 96°
2026-05-05 07:14 32.84834 -117.15231 2275 ft 126 kts 102°
2026-05-05 07:15 32.84691 -117.14205 2258 ft 127 kts 105°
2026-05-05 07:15 32.84499 -117.13191 2252 ft 126 kts 109°
2026-05-05 07:15 32.84252 -117.12178 2189 ft 127 kts 114°
2026-05-05 07:15 32.83943 -117.11206 2190 ft 125 kts 114°
2026-05-05 07:16 32.83628 -117.10228 2124 ft 129 kts 114°
2026-05-05 07:16 32.83294 -117.09247 2107 ft 127 kts 123°
2026-05-05 07:16 32.82704 -117.08482 2032 ft 126 kts 149°
2026-05-05 07:16 32.81908 -117.08143 2002 ft 119 kts 179°
2026-05-05 07:17 32.81097 -117.08264 1983 ft 118 kts 194°
2026-05-05 07:17 32.80300 -117.08465 1958 ft 116 kts 197°
2026-05-05 07:17 32.79505 -117.08701 1895 ft 117 kts 199°
2026-05-05 07:17 32.78721 -117.08964 1872 ft 115 kts 200°
2026-05-05 07:18 32.77966 -117.09253 1853 ft 115 kts 201°
2026-05-05 07:18 32.77197 -117.09567 1770 ft 117 kts 202°
2026-05-05 07:18 32.76441 -117.09891 1762 ft 114 kts 203°
2026-05-05 07:18 32.75693 -117.10207 1708 ft 116 kts 202°
2026-05-05 07:19 32.74933 -117.10526 1690 ft 116 kts 204°
2026-05-05 07:19 32.74185 -117.10857 1693 ft 114 kts 205°
2026-05-05 07:19 32.73566 -117.11435 1607 ft 116 kts 236°
2026-05-05 07:19 32.73203 -117.12306 1499 ft 120 kts 245°
2026-05-05 07:20 32.72877 -117.13229 1364 ft 122 kts 250°
2026-05-05 07:20 32.72682 -117.14234 1181 ft 127 kts 265°
2026-05-05 07:20 32.72717 -117.15305 934 ft 132 kts 273°
2026-05-05 07:20 32.72743 -117.16331 700 ft 119 kts 278°
2026-05-05 07:21 32.72927 -117.17264 410 ft 109 kts 287°
2026-05-05 07:21 32.73138 -117.18077 157 ft 98 kts 287°
2026-05-05 07:21 32.73310 -117.18759 42 ft 69 kts 284°
2026-05-05 07:21 32.73415 -117.19208 18 ft 43 kts 287°
2026-05-05 07:22 32.73475 -117.19455 21 ft 23 kts 286°
2026-05-05 07:22 32.73514 -117.19619 23 ft 21 kts 283°
2026-05-05 07:22 32.73521 -117.19798 24 ft 21 kts 251°
2026-05-05 07:22 32.73499 -117.19870 22 ft 0 kts 251°
2026-05-05 07:23 32.73498 -117.19874 22 ft 4 kts 249°
2026-05-05 07:23 32.73476 -117.19884 22 ft 3 kts 114°
2026-05-05 07:23 32.73450 -117.19780 22 ft 22 kts 105°
2026-05-05 07:24 32.73395 -117.19552 22 ft 33 kts 106°
2026-05-05 07:24 32.73329 -117.19278 18 ft 36 kts 107°
2026-05-05 07:24 32.73262 -117.19006 21 ft 31 kts 107°
2026-05-05 07:24 32.73209 -117.18787 23 ft 25 kts 105°
2026-05-05 07:25 32.73165 -117.18604 19 ft 21 kts 106°
2026-05-05 07:25 32.73126 -117.18446 17 ft 18 kts 107°
2026-05-05 07:25 32.73094 -117.18312 17 ft 16 kts 105°
2026-05-05 07:25 32.73065 -117.18192 15 ft 15 kts 106°
2026-05-05 07:26 32.73093 -117.18110 14 ft 7 kts
2026-05-05 07:26 32.73133 -117.18129 15 ft 11 kts 315°
2026-05-05 07:26 32.73176 -117.18246 18 ft 21 kts 287°
2026-05-05 07:26 32.73192 -117.18303 18 ft 0 kts 286°
2026-05-05 07:27 32.73241 -117.18493 18 ft 48 kts 287°
2026-05-05 07:27 32.73344 -117.18940 126 ft 55 kts 285°
2026-05-05 07:27 32.73434 -117.19406 230 ft 59 kts 283°
2026-05-05 07:27 32.73525 -117.19879 343 ft 57 kts 290°
2026-05-05 07:28 32.73721 -117.20298 415 ft 61 kts 295°
2026-05-05 07:28 32.73922 -117.20763 471 ft 63 kts 296°
2026-05-05 07:28 32.74142 -117.21216 531 ft 62 kts 296°
2026-05-05 07:28 32.74349 -117.21637 640 ft 59 kts 298°
2026-05-05 07:29 32.74644 -117.22003 681 ft 66 kts 311°
2026-05-05 07:29 32.74957 -117.22385 783 ft 66 kts 310°
2026-05-05 07:29 32.75383 -117.22649 877 ft 75 kts 336°
2026-05-05 07:29 32.75908 -117.22553 951 ft 79 kts 17°
2026-05-05 07:30 32.76322 -117.22120 1044 ft 83 kts 59°
2026-05-05 07:30 32.76409 -117.20741 1192 ft 82 kts 118°
2026-05-05 07:30 32.76191 -117.20108 1285 ft 81 kts 117°
2026-05-05 07:31 32.75983 -117.19487 1302 ft 79 kts 121°
2026-05-05 07:31 32.75772 -117.18889 1318 ft 79 kts 119°
2026-05-05 07:31 32.75563 -117.18283 1292 ft 80 kts 118°
2026-05-05 07:31 32.75357 -117.17698 1322 ft 75 kts 120°
2026-05-05 07:32 32.75168 -117.17095 1308 ft 77 kts 118°
2026-05-05 07:32 32.74966 -117.16523 1319 ft 73 kts 122°
2026-05-05 07:32 32.74733 -117.15986 1326 ft 74 kts 126°
2026-05-05 07:32 32.74506 -117.15443 1332 ft 75 kts 122°
2026-05-05 07:33 32.74294 -117.14881 1350 ft 74 kts 123°
2026-05-05 07:33 32.74090 -117.14322 1362 ft 73 kts 118°
2026-05-05 07:33 32.73909 -117.13747 1376 ft 74 kts 117°
2026-05-05 07:33 32.73778 -117.13147 1377 ft 78 kts 108°
2026-05-05 07:34 32.73667 -117.12528 1411 ft 75 kts 108°
2026-05-05 07:34 32.73532 -117.11929 1428 ft 76 kts 107°
2026-05-05 07:34 32.73431 -117.11296 1421 ft 78 kts 106°
2026-05-05 07:34 32.73403 -117.10651 1445 ft 78 kts 91°
2026-05-05 07:35 32.73425 -117.09312 1465 ft 81 kts 91°
2026-05-05 07:35 32.73414 -117.08643 1462 ft 81 kts 111°
2026-05-05 07:35 32.73201 -117.08050 1537 ft 76 kts 123°
2026-05-05 07:36 32.72913 -117.07519 1581 ft 75 kts 139°
2026-05-05 07:36 32.72521 -117.07128 1578 ft 75 kts 154°
2026-05-05 07:36 32.72057 -117.06877 1564 ft 72 kts 175°
2026-05-05 07:36 32.71561 -117.06888 1544 ft 72 kts 195°
2026-05-05 07:37 32.71116 -117.07132 1511 ft 72 kts 219°
2026-05-05 07:37 32.70905 -117.07444 1497 ft 72 kts 243°
2026-05-05 07:37 32.70801 -117.08021 1461 ft 73 kts 265°
2026-05-05 07:37 32.70878 -117.08639 1397 ft 79 kts 279°
2026-05-05 07:38 32.71020 -117.09269 1336 ft 79 kts 283°
2026-05-05 07:38 32.71184 -117.09884 1275 ft 78 kts 284°
2026-05-05 07:38 32.71351 -117.10508 1199 ft 80 kts 283°
2026-05-05 07:38 32.71528 -117.11126 1130 ft 79 kts 282°
2026-05-05 07:39 32.71677 -117.11741 1065 ft 78 kts 282°
2026-05-05 07:39 32.71808 -117.12363 1018 ft 79 kts 282°
2026-05-05 07:39 32.71953 -117.12990 929 ft 80 kts 282°
2026-05-05 07:39 32.72112 -117.13617 824 ft 79 kts 281°
2026-05-05 07:40 32.72259 -117.14235 751 ft 76 kts 281°
2026-05-05 07:40 32.72386 -117.14853 711 ft 78 kts 279°
2026-05-05 07:40 32.72531 -117.15476 669 ft 79 kts 283°
2026-05-05 07:40 32.72669 -117.16105 585 ft 78 kts 281°
2026-05-05 07:41 32.72806 -117.16664 411 ft 68 kts 286°
2026-05-05 07:41 32.72935 -117.17196 262 ft 66 kts 282°
2026-05-05 07:41 32.73059 -117.17717 121 ft 65 kts 283°
2026-05-05 07:41 32.73177 -117.18222 39 ft 60 kts 284°
2026-05-05 07:42 32.73281 -117.18660 19 ft 51 kts 282°
2026-05-05 07:42 32.73366 -117.19024 20 ft 36 kts 287°
2026-05-05 07:42 32.73424 -117.19257 18 ft 24 kts 285°
2026-05-05 07:42 32.73441 -117.19437 21 ft 21 kts 250°
2026-05-05 07:43 32.73412 -117.19498 22 ft 0 kts 203°
2026-05-05 07:44 32.73398 -117.19501 22 ft 10 kts 173°
2026-05-05 07:44 32.73353 -117.19379 20 ft 24 kts 105°
2026-05-05 07:45 32.73330 -117.19158 19 ft 27 kts 44°
2026-05-05 07:45 32.73465 -117.19063 17 ft 18 kts 44°
2026-05-05 07:45 32.73463 -117.18933 17 ft 15 kts 104°
2026-05-05 07:45 32.73434 -117.18821 17 ft 14 kts 105°
2026-05-05 07:46 32.73405 -117.18698 16 ft 18 kts 105°
2026-05-05 07:46 32.73366 -117.18540 19 ft 22 kts 107°
2026-05-05 07:46 32.73328 -117.18374 19 ft 20 kts 106°
2026-05-05 07:46 32.73290 -117.18222 18 ft 18 kts 105°
2026-05-05 07:47 32.73257 -117.18084 18 ft 16 kts 105°
2026-05-05 07:47 32.73276 -117.17979 19 ft 13 kts 14°
2026-05-05 07:47 32.73353 -117.17952 21 ft 10 kts 14°
2026-05-05 07:47 32.73392 -117.17960 22 ft 4 kts 291°
2026-05-05 07:48 32.73394 -117.17967 22 ft 0 kts 283°